User: anonymous   Login
Location: Caltech
(34.1382°N, 118.1253°W)
Time: 11:45:20
(UTC-08:00)
Language:

OAO 2 Rocket - Orbit

View from above orbital plane
View from above orbital plane
View from above satellite
View from above satellite

Ground track
Ground track

The orbit data is extracted from the following two-line orbital elements,

1 03598U 68110B   17057.12812798  .00000070  00000-0  21115-4 0  9990
2 03598  34.9926 244.3421 0048756  46.1314 314.3393 14.54286406550296
Epoch (UTC): 26 February 2017 03:04:30
Eccentricity: 0.0048756
inclination: 34.9926°
perigee height: 677 km
apogee height: 746 km
right ascension of ascending node: 244.3421°
argument of perigee: 46.1314°
revolutions per day: 14.54286406
mean anomaly at epoch: 314.3393°
orbit number at epoch: 55029

The dashed part of the orbit path shows where the satellite is in the earth's shadow,  

DLR